Temp
14 14 14 14 14 14 14 14 14 14 14 14 14 15 15 15 16 16 17 18 18 18 19 20 21 21 22 22 23 24 23 22 23 25 24 24 24 24 24 24 24 24 24 25 24 22 22 21 20 20 19 19 19 19 19 19 19 19 20 20 19 18 18 18 17 17 17 17 17 17 17 17 17 17 19 20 20 20 20 19 19 19 19 19 19 19
13 14 13 13 13 14 14 14 14 14 14 14 14 15 15 15 16 16 17 18 18 17 18 19 19 19 20 21 22 22 23 23 23 24 24 24 24 24 24 24 24 24 24 24 23 22 22 21 20 20 19 19 19 19 19 19 19 19 19 20 20 19 18 18 18 18 17 17 17 17 17 17 17 17 19 20 20 20 20 19 19 19 19 19 19 19
13 14 13 13 14 14 13 13 13 14 14 14 14 14 14 15 16 16 16 17 18 17 18 19 18 19 19 20 21 22 22 23 23 23 24 24 24 24 24 24 24 24 24 24 22 22 22 21 20 20 19 19 19 19 19 19 19 19 19 20 21 20 18 18 18 18 17 17 17 17 18 18 18 18 20 20 20 20 20 19 19 19 19 19 19 19
13 14 13 13 13 13 13 13 13 14 14 14 14 14 14 15 15 15 16 16 17 17 17 18 18 18 19 19 20 21 22 22 22 22 22 23 24 24 24 24 24 24 24 24 23 22 22 21 21 20 20 19 20 19 19 19 19 19 19 19 20 19 19 19 19 18 18 17 18 18 19 19 19 19 20 20 20 20 19 19 19 19 20 20 19 19
13 14 13 12 13 13 13 13 13 14 14 14 14 14 15 15 14 15 16 16 17 17 18 18 17 18 20 20 20 21 22 22 22 22 22 22 23 24 24 24 25 24 24 24 23 22 21 21 21 20 20 20 20 19 19 19 19 19 19 19 20 20 19 19 19 18 18 18 18 18 19 19 19 19 19 18 18 18 18 19 19 19 20 20 19 19
13 14 13 12 13 13 13 13 13 14 14 14 14 14 15 15 15 15 15 15 15 17 18 18 16 18 19 20 20 22 22 22 23 23 23 23 23 23 23 24 24 25 25 24 23 22 21 21 21 20 20 20 20 20 20 20 20 20 19 19 19 20 20 19 18 18 18 18 17 17 17 18 18 18 18 17 17 17 17 17 18 19 20 20 19 19
13 13 12 13 13 13 13 13 13 13 14 14 14 14 15 15 15 15 15 15 15 16 18 17 16 17 18 19 20 21 22 22 23 23 23 23 23 23 23 23 24 25 25 25 24 23 22 21 21 20 20 20 20 20 20 20 20 20 20 19 19 20 20 19 18 18 18 18 17 17 18 18 18 18 18 17 17 17 17 17 18 19 20 19 19 19
13 12 12 12 13 13 13 13 13 13 14 14 13 14 14 14 14 15 15 15 15 16 16 17 17 16 17 19 20 20 20 21 22 22 23 24 23 23 23 23 24 24 25 25 24 23 22 21 21 20 20 20 20 20 20 20 20 20 20 20 19 19 20 19 18 18 18 18 18 18 18 18 18 19 18 18 17 18 17 17 18 19 19 19 19 19
13 13 13 13 13 13 13 14 13 13 14 14 13 14 14 14 14 15 15 15 15 15 15 16 17 16 16 18 20 20 19 20 21 22 23 23 24 23 23 23 23 24 24 25 24 23 22 22 21 21 20 20 21 20 20 20 19 19 19 19 19 19 19 20 19 18 18 18 18 18 18 18 18 18 18 18 18 18 17 17 17 18 19 19 18 19
13 13 13 13 13 13 13 14 14 13 14 14 14 14 15 14 15 15 14 15 15 14 14 16 16 15 16 18 19 19 19 20 21 22 23 23 23 24 23 23 23 23 24 24 24 24 23 22 21 21 21 20 20 20 20 20 19 19 19 19 19 19 19 19 19 19 18 18 18 18 18 18 18 18 18 18 18 17 17 17 17 17 18 18 18 18
13 13 13 13 14 14 14 14 14 14 14 14 14 14 14 14 15 15 15 15 14 13 14 16 16 16 16 18 19 19 20 21 21 22 23 23 23 24 24 23 23 23 23 24 24 23 23 22 21 21 21 20 20 20 20 20 19 19 19 19 19 19 19 19 19 19 18 18 18 18 18 18 18 18 18 18 17 17 16 17 16 17 17 18 18 18
12 12 13 13 14 14 14 14 14 14 14 14 14 14 14 14 14 14 14 14 12 12 15 16 16 15 15 17 19 20 21 21 21 22 22 23 23 23 24 23 24 24 23 23 24 24 23 22 22 21 20 20 20 20 20 20 19 19 19 19 19 19 19 19 19 19 18 18 18 18 18 18 18 18 18 17 17 17 16 16 16 16 17 17 17 18
11 12 13 13 14 14 13 13 13 13 14 14 14 13 12 13 13 12 13 13 12 13 16 16 16 15 15 17 18 19 20 21 21 22 22 22 22 23 23 23 23 23 23 23 23 23 23 22 22 21 21 20 20 20 20 20 19 19 19 19 19 19 19 19 19 19 18 18 18 17 18 18 18 18 18 18 18 17 16 17 16 16 17 17 17 17
11 12 12 12 13 14 13 13 12 13 13 13 13 13 12 12 11 10 12 13 13 14 16 16 15 15 16 18 18 19 20 20 21 22 22 22 22 22 22 23 23 23 23 23 23 23 23 22 22 22 21 21 21 20 20 19 19 19 19 19 19 19 19 18 19 19 18 17 18 18 18 18 18 18 18 18 18 18 17 17 17 18 18 17 17 17
10 11 12 12 12 13 13 13 13 13 13 13 14 13 13 13 12 11 13 13 13 15 16 16 15 15 17 18 19 20 21 21 21 22 22 22 22 22 22 22 23 23 23 23 23 23 23 23 22 22 21 21 21 20 20 19 19 19 19 19 19 19 19 18 18 18 18 18 18 18 18 18 18 18 18 18 19 19 18 18 19 19 19 19 18 18
10 11 12 12 12 12 13 14 14 13 13 13 14 13 13 14 14 13 14 14 14 14 14 15 15 16 18 19 19 20 20 21 21 22 22 22 23 22 22 22 22 23 23 23 23 23 23 23 23 22 22 21 21 20 20 20 19 19 19 19 19 19 19 18 18 18 18 18 18 18 18 18 18 18 18 18 18 19 19 19 20 20 20 20 19 19
10 11 12 11 12 12 13 13 14 13 13 13 13 13 13 15 15 13 13 14 13 12 13 15 15 17 18 19 20 20 20 21 21 21 21 22 23 22 22 22 22 22 22 22 22 22 23 23 23 23 22 22 21 21 20 20 20 20 19 19 19 19 19 19 18 18 18 18 18 18 18 18 18 18 18 18 18 19 19 19 20 20 20 20 19 19
10 11 12 11 12 13 12 13 13 14 14 13 12 13 14 14 14 13 13 13 13 12 14 15 15 16 17 18 19 20 20 21 21 21 21 21 21 21 21 21 21 21 21 22 22 22 22 23 23 23 23 22 22 21 21 20 20 20 19 19 19 19 19 19 18 18 18 18 18 18 18 18 18 18 18 18 18 19 19 19 19 19 19 19 19 19
10 10 12 11 11 12 12 12 12 13 14 13 13 14 14 13 13 13 12 12 12 12 13 15 15 16 17 18 19 20 20 21 22 22 21 21 21 21 21 22 21 21 21 21 22 22 22 23 23 23 23 22 22 21 21 21 20 20 19 19 19 19 19 19 18 18 18 18 18 18 18 18 18 18 17 17 18 18 19 19 19 19 19 19 19 19
10 10 11 10 10 11 12 12 12 13 13 13 13 14 14 13 13 13 13 13 13 13 13 14 15 16 17 19 19 20 21 21 22 22 22 22 22 22 22 22 22 21 21 21 21 22 22 22 23 23 23 23 22 22 21 21 20 20 20 20 19 19 19 19 19 19 18 18 18 18 18 18 17 17 17 17 17 18 18 19 19 19 19 19 19 18
10 9 10 11 11 11 12 13 13 13 13 13 12 13 13 13 13 13 13 14 14 13 13 14 14 16 19 19 20 20 21 21 22 22 22 22 22 22 22 22 23 22 21 21 21 22 22 22 23 23 23 23 23 22 22 21 20 20 20 20 19 19 19 19 19 19 19 18 18 18 18 18 17 17 18 17 17 17 18 18 19 19 19 19 18 18
9 9 9 10 11 11 13 13 13 13 13 13 13 13 13 13 13 13 13 14 14 14 14 14 13 16 19 19 19 20 20 20 21 20 21 22 22 22 22 22 21 21 20 20 21 21 22 22 22 23 23 23 23 22 22 21 21 20 20 20 20 19 19 19 19 19 19 18 18 18 18 17 17 17 17 17 17 17 17 17 18 18 18 18 18 18
9 8 8 9 10 11 12 13 13 13 13 13 13 13 14 14 13 13 13 13 14 14 14 14 13 16 19 18 18 19 19 19 20 19 20 21 21 21 21 21 20 20 20 20 20 21 21 22 22 23 23 23 23 22 22 21 21 20 20 20 20 19 19 19 19 19 19 19 18 18 18 17 17 17 17 17 16 17 17 17 17 18 18 18 18 17
9 8 8 9 11 12 12 12 12 12 12 12 12 13 13 13 14 14 14 14 14 14 14 14 13 15 18 17 17 18 19 19 19 19 19 20 20 20 20 20 20 19 19 19 19 20 21 21 22 22 23 23 23 22 22 21 21 21 20 20 20 19 19 19 19 19 19 19 18 18 17 17 17 17 17 16 16 16 17 17 16 16 16 17 17 17
9 8 8 9 10 11 12 12 11 11 11 12 13 13 13 14 14 14 14 13 13 13 14 13 13 16 18 18 18 19 20 20 20 19 19 19 19 20 20 20 20 19 19 19 19 19 20 21 22 22 23 23 23 22 22 21 21 21 20 20 20 19 19 19 19 19 19 19 19 18 17 17 17 16 16 16 16 16 16 16 16 16 15 16 17 17
9 8 8 9 9 10 11 11 11 12 12 12 13 13 13 13 13 13 14 13 12 13 14 13 13 16 18 19 19 20 20 20 20 20 20 20 19 19 19 19 19 19 19 19 19 19 19 20 21 22 22 23 23 22 22 21 21 21 20 20 20 20 20 19 19 19 19 19 19 18 17 17 17 16 16 16 16 16 16 16 16 16 15 15 17 17
8 8 9 9 9 10 11 12 11 11 12 12 12 13 13 13 13 14 14 13 13 13 13 14 14 15 17 18 19 20 20 20 20 20 20 20 19 19 19 19 19 19 19 19 18 18 19 19 21 21 22 22 23 22 22 21 21 21 20 20 20 20 20 19 19 19 19 19 19 18 17 17 17 16 16 16 16 16 16 16 16 16 15 15 16 17
9 9 9 8 9 10 11 12 12 11 11 12 12 13 13 14 13 13 13 13 14 13 13 14 15 14 16 18 19 20 19 19 19 19 19 19 19 19 19 19 19 19 19 19 18 18 18 19 20 21 21 22 22 22 22 21 21 21 20 20 20 20 19 19 19 18 18 19 19 17 17 17 16 16 16 16 16 16 16 16 17 16 15 15 16 16
9 9 10 9 9 9 10 11 11 11 11 11 12 12 13 14 13 13 13 14 14 13 13 15 15 15 17 19 19 20 19 18 18 18 18 18 18 18 19 18 19 19 19 20 20 19 18 19 20 20 21 21 22 22 22 21 21 21 20 20 20 20 19 19 18 18 18 19 18 17 17 17 16 16 16 16 16 16 16 16 17 16 15 15 16 16
10 10 10 9 9 9 9 10 11 11 11 11 11 12 13 13 14 14 14 14 14 13 14 15 15 16 17 19 20 19 18 17 17 17 18 18 18 18 18 18 19 19 20 21 21 20 19 19 20 20 21 21 22 22 22 21 21 21 21 21 20 20 19 18 18 18 18 18 18 17 17 17 16 16 16 16 16 16 16 16 17 16 15 16 16 16
10 10 10 9 9 10 10 10 10 11 11 11 12 12 12 12 13 14 14 14 13 13 14 14 14 15 17 19 18 17 17 16 17 17 18 18 18 17 18 18 19 19 21 21 21 20 19 19 19 20 21 21 21 22 22 21 21 21 21 21 20 20 19 19 18 18 18 18 18 17 17 17 16 16 16 16 16 16 16 17 16 15 15 15 15 16
10 10 10 9 10 11 11 10 10 10 10 11 12 13 12 12 13 13 13 14 13 13 14 14 14 15 17 17 16 16 17 16 17 17 17 17 17 17 17 18 18 19 20 21 20 20 19 19 19 20 21 21 21 22 21 21 21 21 21 21 20 20 19 19 18 18 18 18 18 17 17 17 16 16 16 16 16 16 16 16 15 15 15 15 15 15
9 10 10 10 10 11 11 10 10 10 10 11 12 13 13 13 13 13 13 14 14 14 14 15 15 16 16 16 15 15 16 16 16 17 16 16 16 16 17 17 18 19 20 19 19 19 19 19 20 20 20 21 21 21 21 21 21 21 21 21 20 19 19 18 18 18 18 18 17 17 17 16 16 16 16 16 16 16 16 15 15 14 14 15 15 14
10 10 9 9 10 12 12 11 10 11 11 12 12 11 12 12 12 12 13 14 14 14 14 15 15 15 15 14 14 14 14 15 16 16 16 16 16 16 16 17 18 19 19 18 18 18 19 19 20 20 20 21 21 21 20 20 20 20 20 20 19 19 18 18 18 18 18 18 17 17 17 16 16 16 16 16 16 16 15 15 15 14 15 15 14 14
10 10 10 10 10 12 13 12 11 12 12 11 10 10 10 11 10 11 12 13 13 14 14 14 14 14 15 15 14 14 14 15 15 15 16 16 16 16 16 17 17 18 18 18 18 18 18 19 19 20 20 20 20 20 20 20 20 20 19 19 19 18 18 18 18 18 18 17 17 17 17 16 16 16 16 16 16 15 15 15 15 14 14 14 14 14
10 10 10 10 11 12 13 12 12 13 12 11 9 9 10 9 9 10 12 13 13 13 13 14 14 14 14 14 14 14 14 14 15 16 16 17 16 16 16 16 16 16 17 17 17 17 18 18 19 19 19 20 20 20 20 20 20 20 19 19 19 18 18 18 18 18 18 17 17 17 17 16 16 16 16 16 16 15 15 15 14 14 14 14 14 13
10 10 10 11 12 12 12 12 13 13 13 11 10 11 11 11 10 10 11 13 13 13 13 13 13 14 14 14 14 14 13 14 16 17 17 16 16 15 15 16 15 15 16 17 17 17 18 19 19 19 19 19 19 20 20 20 20 20 19 19 18 18 18 18 18 18 17 17 17 17 17 16 16 16 16 16 15 15 15 15 14 14 14 14 13 13
11 11 11 11 11 11 12 12 13 13 13 12 12 12 12 12 11 10 10 12 13 13 13 13 13 14 14 14 13 13 14 16 18 18 17 16 16 15 15 15 15 16 16 16 16 18 18 18 18 19 19 19 19 19 19 19 19 19 19 18 18 18 17 17 17 17 17 17 17 17 17 16 16 16 16 16 15 15 15 15 14 14 14 13 13 13
11 10 10 11 11 11 11 11 12 12 12 11 11 11 12 12 11 10 11 12 13 12 13 13 13 14 14 14 13 13 14 15 16 17 17 15 15 15 14 14 15 15 16 16 16 18 18 18 18 18 19 19 19 19 19 19 19 18 18 18 17 17 17 17 17 17 17 17 17 17 17 16 16 16 16 15 15 15 15 15 14 14 14 13 13 13
11 10 10 10 11 11 11 11 12 12 11 10 10 11 12 12 11 11 12 13 13 12 12 12 13 14 14 14 13 13 14 14 14 15 15 15 15 14 14 14 15 15 15 16 17 17 18 18 18 19 19 19 19 19 19 19 19 18 18 17 17 17 17 17 17 17 17 17 17 17 17 17 16 16 16 15 15 15 15 15 14 14 14 13 13 13
12 11 11 11 11 11 11 11 12 12 11 10 10 11 11 11 11 12 13 13 13 13 13 13 13 14 14 14 13 13 14 15 14 14 14 14 14 14 14 14 14 14 14 15 16 17 18 18 19 19 19 19 19 19 19 19 19 18 18 18 18 18 18 18 17 17 17 17 17 17 17 17 16 16 16 15 15 15 15 15 15 14 13 13 13 13
11 11 11 11 11 11 11 11 12 12 11 10 11 11 11 11 12 13 13 13 13 13 13 13 13 14 13 13 13 13 14 15 15 14 14 13 13 13 13 13 13 13 14 15 15 16 17 18 18 19 19 18 18 19 19 19 19 18 18 18 18 18 18 18 18 18 18 17 17 17 17 16 16 16 16 15 15 15 14 15 15 14 13 13 13 12
10 10 12 11 11 11 12 12 12 12 11 11 11 11 10 11 12 12 12 12 13 13 13 13 13 13 13 13 13 13 14 14 14 14 14 13 13 13 13 13 13 13 13 14 14 15 16 18 18 18 18 18 18 19 19 19 19 18 18 18 18 19 18 18 18 18 18 17 17 17 17 17 16 16 16 16 16 15 14 14 14 14 13 13 12 12
10 10 11 11 11 11 12 12 12 12 11 11 11 11 11 11 12 12 11 12 13 13 12 12 13 13 12 12 12 13 13 13 13 13 13 13 13 13 13 13 13 13 13 13 13 14 16 18 18 18 17 17 18 18 19 19 19 18 18 18 18 18 18 18 18 18 18 17 17 16 16 16 16 16 16 16 15 15 14 14 14 13 13 12 12 11
11 10 10 10 10 11 10 10 11 11 11 11 11 11 12 12 12 12 12 12 12 12 12 12 12 12 12 12 12 12 13 13 12 12 13 13 13 13 13 13 13 13 13 13 13 14 16 17 17 17 17 17 17 17 18 19 19 18 18 18 18 18 18 18 18 17 17 16 16 16 16 16 16 15 15 15 15 14 14 14 13 13 12 12 11 12
11 11 10 10 10 10 10 11 11 11 11 11 12 12 12 12 12 11 11 12 12 12 12 12 12 12 12 12 12 12 12 12 12 12 13 13 13 14 14 13 13 13 13 13 13 14 15 16 16 16 16 16 16 16 17 18 18 18 17 17 17 18 18 18 17 16 16 16 16 16 16 16 15 15 15 14 14 14 14 13 13 12 12 12 11 12
10 10 10 9 9 10 11 12 12 11 11 11 12 12 12 12 12 11 11 11 12 12 12 12 12 12 12 12 12 12 12 12 12 13 13 13 13 13 13 13 13 13 13 13 12 13 15 15 15 15 15 15 15 15 16 16 17 17 17 16 16 17 17 17 16 16 16 16 16 16 15 15 15 15 15 14 14 14 13 13 13 12 12 11 11 11
9 10 9 8 8 10 11 12 11 10 11 12 12 11 11 11 11 11 11 11 12 12 12 12 12 12 12 12 12 12 12 12 12 12 13 13 13 12 12 12 12 12 12 12 12 13 14 14 14 14 14 14 15 15 15 15 16 16 16 16 16 16 16 16 16 16 16 16 16 15 15 15 15 15 14 14 14 13 13 12 12 12 12 11 11 11
9 9 8 8 8 10 11 11 10 10 11 12 11 11 11 11 11 11 11 11 12 12 12 12 12 12 12 11 11 11 11 12 12 12 12 12 12 12 12 12 12 12 12 12 12 12 13 13 13 13 13 14 14 15 15 15 15 15 16 16 16 16 16 16 15 15 16 15 15 15 15 15 15 14 14 14 13 13 13 12 12 12 12 12 12 12
8 8 7 8 8 9 9 9 9 9 9 10 11 11 11 11 10 10 11 11 11 11 11 11 12 12 12 11 11 11 11 12 11 12 12 12 12 12 12 12 12 12 12 12 12 12 12 12 12 13 13 13 14 14 14 14 14 15 15 15 16 16 16 15 15 15 15 15 15 15 14 14 14 14 14 13 13 13 13 12 12 12 12 12 12 12
7 6 6 7 7 8 8 8 8 7 8 9 10 10 10 10 10 10 11 11 11 11 11 11 11 11 11 11 11 11 11 11 11 11 12 12 11 11 11 11 11 12 12 12 12 12 12 12 12 12 12 13 14 14 14 14 14 15 15 15 15 15 15 15 15 14 14 14 14 14 14 14 14 13 13 13 13 12 12 11 11 11 12 12 12 12
Height
787 787 787 787 788 789 789 788 788 789 790 790 789 789 788 787 783 780 776 770 770 773 766 757 754 752 751 748 745 743 743 745 743 741 742 743 743 743 744 745 745 746 743 739 743 747 750 753 756 758 761 764 768 771 774 776 778 779 780 782 786 790 793 796 799 802 806 807 809 810 810 811 812 814 815 816 818 821 823 825 827 828 830 831 833 835
788 787 787 788 788 786 786 788 789 790 790 789 789 788 787 787 783 779 777 771 769 774 767 759 759 757 755 752 747 744 743 742 742 741 740 740 742 741 742 743 742 742 740 740 744 746 749 752 754 757 758 761 764 767 770 772 774 777 778 779 782 787 791 793 796 799 803 805 806 808 809 810 812 813 814 815 817 819 822 824 826 827 828 830 832 833
788 787 787 788 786 786 787 789 790 788 788 788 787 788 787 784 782 778 777 772 770 773 767 761 762 759 755 753 748 745 742 739 738 739 738 737 739 740 740 740 740 740 740 741 744 744 745 748 750 753 756 758 761 763 766 769 772 774 776 777 779 784 788 791 793 796 800 803 805 806 807 809 810 812 813 815 817 819 821 823 824 826 827 828 830 831
789 786 786 787 787 789 789 790 790 787 787 786 785 787 785 783 784 780 776 775 771 770 768 765 764 758 754 752 748 744 740 738 737 737 737 737 736 735 734 735 736 738 738 739 741 741 742 745 748 750 752 755 758 761 764 767 770 771 772 774 776 780 785 788 790 794 799 802 804 805 806 808 810 811 813 815 816 818 820 821 823 824 825 827 828 830
787 784 786 789 789 788 788 789 788 786 784 784 783 784 782 782 785 781 778 778 773 767 764 766 768 757 750 750 746 740 737 737 736 735 735 735 735 733 731 731 731 731 732 734 737 738 739 741 744 746 748 751 754 757 759 761 764 765 768 771 773 776 781 785 788 792 797 800 802 803 806 808 809 810 812 813 814 816 818 819 820 822 823 825 827 828
784 782 785 788 787 787 788 786 785 783 782 782 781 780 778 779 781 781 781 781 779 771 761 765 773 760 747 747 743 737 736 735 734 732 732 731 731 733 733 730 728 727 727 728 731 733 735 737 740 742 744 747 750 751 753 755 758 761 765 769 772 773 777 782 786 789 794 797 799 801 802 804 806 807 809 810 811 813 816 817 818 820 821 823 825 827
782 782 784 784 782 784 785 784 784 784 783 782 779 776 777 779 780 780 781 781 780 773 761 763 771 763 751 746 740 737 737 733 730 730 727 726 727 729 730 729 727 726 725 726 728 730 732 734 735 737 740 743 744 744 747 751 754 759 762 766 769 771 773 778 783 786 790 793 796 797 798 800 803 805 806 808 810 812 814 816 816 818 819 821 823 825
781 783 785 783 781 782 783 782 783 783 782 780 778 778 778 779 780 779 779 780 775 769 765 763 766 768 760 747 738 739 741 736 731 728 724 722 722 723 724 724 724 723 723 724 726 728 730 731 732 733 735 736 737 739 744 748 751 755 758 762 766 768 770 774 779 783 786 789 792 794 796 798 800 803 805 807 809 811 813 814 815 816 817 819 821 823
780 781 781 781 781 780 779 778 779 780 779 777 777 778 777 777 779 777 778 777 772 774 774 764 763 770 762 745 738 740 741 739 732 726 722 719 719 719 720 721 721 721 720 721 723 725 727 729 730 730 730 730 732 736 741 744 747 751 755 759 763 766 767 770 775 778 782 786 789 791 793 796 798 801 803 805 807 809 811 813 813 814 815 817 819 821
779 777 776 778 777 776 776 775 776 777 776 775 776 776 775 776 775 775 777 775 775 780 776 762 762 768 757 742 740 741 739 735 729 722 718 717 717 717 718 719 720 720 719 719 720 722 724 725 727 727 727 728 730 735 738 742 746 751 754 757 760 762 763 766 771 775 778 782 785 787 789 792 796 799 801 804 806 808 810 811 811 812 813 815 817 819
777 776 776 776 773 772 773 773 773 774 772 773 775 774 774 775 773 774 774 772 779 782 771 758 759 765 758 743 737 736 730 726 724 721 718 717 716 715 715 717 718 718 718 718 718 719 720 721 723 726 728 730 732 735 739 742 745 748 752 754 756 758 760 762 767 771 775 779 782 784 786 790 793 796 799 802 804 806 808 809 809 810 811 813 814 816
778 778 774 772 770 770 772 772 771 772 771 773 775 775 777 774 772 776 775 777 786 779 761 753 756 764 763 745 732 728 722 720 722 722 719 717 716 715 714 715 716 716 716 716 716 716 717 719 721 724 727 730 733 735 738 740 742 745 748 751 754 756 757 759 762 767 771 775 778 781 784 787 790 793 796 799 802 804 806 807 807 808 809 811 812 814
776 773 770 769 768 768 772 772 772 772 773 774 773 777 782 777 777 784 777 777 782 769 753 753 757 762 756 742 734 729 723 721 720 718 717 716 715 715 715 715 714 714 715 715 715 715 715 717 718 720 723 727 730 732 733 736 738 741 744 747 750 752 753 755 758 762 767 770 774 777 780 783 786 789 792 795 798 801 803 804 805 806 807 808 810 812
775 769 770 773 768 765 768 770 771 771 771 774 772 776 780 777 788 795 779 772 774 762 751 752 758 760 748 733 729 726 721 719 716 714 714 715 715 714 714 714 714 714 714 714 714 714 714 714 715 717 720 723 725 727 730 732 734 737 741 743 746 747 750 753 754 758 763 765 769 773 777 780 783 786 789 791 794 797 800 801 802 803 804 806 807 809
782 772 766 769 767 763 765 764 765 766 768 770 766 770 773 769 778 783 770 767 767 756 749 753 759 757 741 726 719 715 712 712 712 710 711 712 712 712 711 711 713 712 712 713 713 712 712 711 712 713 716 719 721 724 726 729 731 734 737 739 741 744 747 749 751 754 758 761 766 770 774 777 779 782 785 788 791 794 796 797 799 800 802 803 805 806
787 775 763 765 764 764 764 761 761 765 768 766 762 768 769 760 761 764 760 759 760 759 756 755 754 743 728 720 715 712 710 709 709 708 707 708 707 708 709 708 710 710 709 710 710 710 709 709 710 710 712 714 717 720 723 726 728 730 733 735 737 739 742 745 747 750 754 758 762 766 770 773 776 779 781 784 787 790 793 794 796 798 800 802 803 805
781 772 764 767 764 762 763 759 760 764 765 764 765 765 760 753 756 762 763 759 762 770 763 752 749 737 726 721 712 710 711 708 708 707 706 705 703 704 706 706 707 708 707 707 707 707 706 706 707 708 709 711 713 716 719 721 723 725 727 729 732 736 739 742 744 747 752 754 758 762 766 769 771 774 777 780 784 787 790 792 794 796 798 800 802 803
777 769 761 765 763 758 761 761 760 760 760 763 764 759 755 757 760 763 768 765 766 770 758 747 747 740 734 726 711 708 710 706 705 704 705 705 703 703 703 703 704 704 704 704 703 704 703 702 703 704 706 707 709 711 713 715 718 720 722 725 729 732 734 736 739 744 749 751 754 758 761 764 767 769 773 776 780 784 787 789 792 794 796 798 800 802
781 774 762 764 766 761 762 763 761 759 757 758 758 755 757 764 763 762 771 772 769 767 757 747 742 735 731 725 714 711 709 704 701 700 702 703 702 701 700 699 701 701 702 702 700 701 700 699 699 700 702 704 705 707 709 711 713 716 720 723 727 729 731 734 739 743 747 748 751 753 756 760 763 766 771 774 777 781 783 786 789 791 793 796 798 800
781 781 769 765 767 764 761 759 759 758 757 757 758 756 756 758 757 756 761 762 760 760 756 748 741 732 723 715 711 709 705 701 699 697 698 699 698 698 697 696 696 697 698 698 697 696 696 696 695 696 698 699 701 703 705 707 710 712 716 720 724 727 730 733 737 740 743 744 747 750 752 756 760 764 769 772 775 777 780 783 786 788 791 793 795 797
781 785 776 765 764 763 758 755 754 752 754 759 760 759 758 757 756 755 755 753 751 754 754 750 743 728 712 706 706 703 699 697 696 695 694 693 693 693 693 692 691 691 693 694 693 692 691 692 692 692 694 695 697 699 701 704 706 708 712 716 720 723 726 729 732 736 739 741 745 747 749 752 757 762 766 769 772 774 778 781 783 785 788 791 793 795
781 785 780 768 764 760 752 750 752 751 751 754 755 754 753 754 756 758 758 751 747 750 749 748 746 727 707 704 704 699 697 697 696 697 695 692 691 690 689 689 689 688 689 690 690 689 688 688 688 689 691 692 694 696 698 701 703 706 710 713 716 719 722 724 727 731 734 738 742 744 747 751 755 759 762 766 769 772 775 777 779 782 785 788 790 792
781 785 783 773 764 756 749 748 751 752 752 753 753 750 749 751 751 752 753 747 745 747 743 744 749 730 706 704 705 701 700 698 696 697 695 692 691 690 689 689 688 687 687 686 686 685 684 683 684 685 686 687 689 691 694 697 700 703 706 709 713 715 717 720 723 727 730 735 739 742 745 749 751 755 759 762 765 768 771 774 776 779 782 785 788 790
781 785 783 773 761 750 746 748 750 752 754 754 752 750 749 748 745 743 744 744 745 746 743 747 749 728 706 705 707 701 698 695 694 695 694 693 691 689 689 687 686 686 684 683 682 681 681 680 680 680 681 682 685 688 691 694 696 700 703 706 709 710 712 717 721 725 728 731 735 739 743 745 747 751 755 758 761 764 768 771 774 777 780 782 785 787
778 781 781 777 767 754 747 748 751 752 754 752 748 747 747 745 744 743 744 747 748 744 743 749 745 721 704 703 701 697 694 691 690 691 691 692 690 687 687 685 684 683 681 680 679 678 678 677 676 676 676 678 681 684 688 691 693 695 698 701 704 706 709 714 718 722 725 728 732 736 739 741 744 747 751 754 758 761 765 768 771 774 777 780 782 785
776 778 778 777 773 764 754 750 750 749 748 746 744 745 744 743 745 744 743 748 749 743 742 744 736 718 705 702 698 693 692 691 688 686 686 686 686 685 684 683 681 679 678 677 676 675 675 674 672 671 672 674 677 679 683 686 689 691 693 696 699 703 707 711 714 718 721 725 728 732 735 737 740 743 746 750 754 758 762 765 768 772 775 777 779 782
776 776 774 773 769 762 752 747 748 749 747 745 743 741 740 740 741 740 741 744 742 742 742 738 733 725 715 708 701 694 692 691 688 686 684 683 683 682 681 680 678 676 674 673 673 672 670 669 668 668 668 670 672 674 677 680 684 687 689 692 696 699 704 707 710 714 717 721 725 728 730 733 736 739 742 746 751 755 759 762 765 769 773 775 777 779
775 772 769 772 770 761 753 747 747 749 750 747 743 740 736 736 737 740 741 738 738 746 745 733 730 728 716 707 701 693 691 691 688 686 684 682 681 680 679 677 674 672 670 668 669 668 667 665 664 664 665 666 668 670 672 675 679 682 685 689 693 697 700 703 706 710 714 718 721 723 725 729 732 736 739 743 747 752 756 759 762 767 771 772 774 776
771 766 762 767 767 762 758 751 746 747 749 746 743 739 736 734 736 737 735 734 738 744 738 725 722 718 708 701 695 689 690 691 687 685 684 681 680 679 677 675 672 669 666 664 663 663 663 662 661 661 661 662 664 666 668 670 674 677 682 687 691 694 696 698 702 706 711 714 716 718 722 726 729 733 737 741 745 749 753 757 761 765 767 769 771 773
767 762 758 763 763 758 756 752 746 745 746 745 742 737 734 733 732 730 728 729 734 736 729 722 719 712 702 695 689 687 690 691 687 684 681 679 678 678 676 674 671 667 664 660 658 657 657 657 656 656 657 658 659 660 663 666 669 672 677 681 686 689 691 694 698 703 707 709 711 715 719 723 726 730 734 738 742 746 751 755 758 761 763 766 768 770
766 762 757 762 761 751 747 749 747 744 743 743 739 734 734 734 732 730 728 728 732 732 726 724 723 713 699 691 689 690 691 690 686 682 678 676 677 678 675 672 669 665 660 656 654 652 651 651 651 651 652 652 653 655 658 661 664 667 671 676 680 684 687 691 695 699 702 705 709 713 717 720 724 728 732 735 739 744 748 752 755 758 761 763 765 767
767 763 758 760 757 745 740 745 746 745 746 744 736 730 731 732 729 727 726 725 726 726 723 723 722 710 696 692 693 692 689 688 686 681 679 677 676 676 675 670 666 662 657 654 651 649 646 645 645 646 646 647 650 653 655 656 659 662 667 671 675 679 683 688 692 696 699 703 707 711 714 717 721 726 729 732 736 741 745 748 752 755 758 760 761 764
766 763 758 759 755 741 738 744 745 745 745 739 730 726 726 726 727 724 722 719 718 717 717 715 709 701 696 698 698 694 691 688 684 680 681 680 677 675 673 670 665 659 655 653 650 647 643 640 640 641 642 644 646 649 652 654 656 658 661 666 671 676 680 685 690 694 698 702 705 708 711 715 719 723 726 730 734 738 742 746 749 752 754 756 758 760
762 762 761 761 754 739 734 741 743 741 738 731 728 730 728 727 728 726 721 717 714 712 710 707 703 701 701 702 701 699 694 688 682 678 679 680 679 675 670 666 663 657 654 651 648 645 640 637 636 636 637 640 643 646 650 653 656 659 663 667 671 675 679 683 688 693 697 700 703 706 709 713 716 720 723 727 731 736 740 743 746 748 750 752 755 757
760 760 760 760 755 739 729 733 737 734 731 730 733 737 735 732 732 727 720 715 712 711 709 707 705 703 702 700 700 698 692 685 681 676 673 673 674 673 669 664 660 656 653 650 646 643 639 636 635 633 634 636 639 643 647 651 655 660 664 668 671 673 678 683 687 691 695 698 701 704 707 710 713 717 721 725 729 733 737 740 743 745 747 749 751 753
759 759 757 756 750 738 728 731 732 725 723 732 738 737 735 736 735 730 720 712 709 708 707 707 705 702 700 699 697 696 691 684 677 671 668 668 669 669 668 664 660 657 653 649 645 641 637 635 633 632 632 634 637 640 644 647 652 658 661 665 669 673 677 682 686 689 693 696 699 702 704 707 711 714 718 721 726 729 733 736 739 741 744 746 748 750
756 758 756 750 744 738 733 730 726 717 718 729 734 730 729 730 729 729 722 711 706 706 707 707 705 701 699 697 696 695 692 684 675 668 668 669 668 668 667 663 661 660 654 647 642 638 635 634 632 632 632 634 636 638 641 646 650 655 659 663 668 672 676 680 684 688 691 694 697 700 703 705 708 712 715 719 723 726 730 733 736 739 741 743 745 747
754 755 755 750 744 742 738 731 723 718 719 724 725 723 723 722 722 727 725 713 707 707 706 706 704 700 697 695 695 693 689 684 675 667 669 671 667 665 664 661 661 659 649 642 639 637 635 634 633 633 633 635 636 638 641 645 648 652 657 662 667 671 675 679 683 686 690 693 696 699 702 705 708 711 714 716 720 724 727 731 734 737 739 741 742 745
753 755 756 753 748 746 744 738 731 727 726 728 728 724 721 719 719 723 722 712 707 707 705 704 702 698 695 693 693 690 688 687 679 668 669 674 669 665 665 663 660 653 643 640 640 637 635 634 633 633 635 636 637 639 641 644 647 651 656 661 666 670 674 678 681 685 688 692 696 699 703 706 708 711 714 717 720 723 727 730 733 735 737 739 740 742
752 755 756 755 751 748 745 740 732 728 730 734 733 726 720 718 719 720 714 707 706 705 703 702 699 695 693 692 693 691 688 689 685 673 669 672 671 668 667 663 657 650 645 645 643 639 636 635 633 634 635 636 638 640 642 645 648 651 655 658 663 667 670 674 677 681 685 689 692 696 699 702 706 710 714 717 720 724 727 730 732 734 735 737 739 740
751 753 753 752 748 744 742 738 730 727 732 734 730 725 720 717 718 716 708 705 705 702 699 699 697 694 692 691 692 691 687 684 682 675 669 668 668 665 660 655 654 654 654 652 646 640 637 635 633 634 635 637 640 641 643 646 648 652 655 657 660 663 666 670 673 676 680 683 686 690 693 697 702 706 711 716 721 725 727 728 729 730 731 733 735 737
759 756 750 749 748 743 741 738 729 724 729 731 726 722 720 718 716 712 706 704 704 700 697 697 695 692 691 690 688 687 684 679 676 673 669 667 667 665 659 655 658 658 656 652 645 640 637 635 634 635 635 638 641 643 645 647 649 651 654 657 659 662 665 668 670 673 677 680 683 686 689 692 697 701 707 712 715 718 720 722 723 725 727 729 730 732
770 764 753 750 751 745 738 733 729 728 729 728 724 722 722 721 716 711 707 705 702 699 698 697 694 692 691 689 685 682 678 675 674 673 670 666 666 667 664 663 663 660 654 649 643 639 637 636 636 636 637 638 641 643 646 648 649 651 654 656 659 662 664 667 669 672 674 677 679 682 684 687 691 695 698 700 702 706 710 714 718 721 723 724 726 729
772 769 763 759 756 751 745 740 739 737 733 728 725 723 722 720 714 710 708 705 701 699 699 697 694 693 691 689 686 682 678 677 676 674 670 666 665 667 665 664 663 658 652 647 642 638 637 638 638 639 640 641 642 645 648 649 650 652 654 656 659 662 664 667 669 671 674 676 677 679 681 684 688 690 691 693 695 701 706 710 714 718 721 722 724 727
770 770 770 766 761 759 758 753 746 739 734 730 727 722 720 717 712 708 707 704 701 700 699 697 695 694 692 690 687 684 680 677 674 671 668 666 666 666 663 661 658 654 651 646 642 638 637 638 640 642 643 643 644 647 650 652 654 654 655 657 660 662 664 667 669 670 673 675 677 678 680 682 684 687 689 691 693 696 699 703 707 712 716 720 722 725
771 770 769 768 763 759 755 749 744 739 734 730 726 722 719 717 714 710 707 705 703 701 699 697 695 693 691 690 687 684 680 676 672 670 669 669 667 661 657 656 654 652 650 647 642 640 639 640 641 643 645 646 647 650 653 657 658 658 657 658 660 663 666 667 669 670 672 674 677 678 679 680 682 685 688 691 693 695 696 699 702 706 709 713 717 721
773 770 769 770 768 761 750 743 742 742 737 730 726 723 719 717 714 713 710 707 704 701 699 697 695 692 690 690 687 684 679 676 674 671 669 669 666 660 656 655 652 651 650 648 645 643 642 643 644 646 648 649 651 653 656 658 660 660 659 659 660 662 666 668 670 671 672 674 676 677 677 678 679 682 686 689 692 694 696 698 701 703 706 709 711 715
776 773 774 775 773 764 752 745 746 745 737 730 728 725 721 719 716 713 711 707 704 701 698 696 695 692 690 689 688 685 681 678 675 672 669 668 665 661 659 657 653 651 650 649 648 648 647 647 648 650 651 652 654 656 658 659 660 660 660 659 660 662 665 668 669 670 671 673 674 674 675 676 678 680 684 686 689 691 693 696 699 701 703 705 707 708
780 778 780 780 773 762 753 750 749 745 736 729 728 727 724 722 719 714 711 708 704 700 698 696 693 692 691 689 687 686 684 681 678 674 671 667 664 662 661 658 657 656 654 651 651 652 652 652 652 653 654 655 656 658 659 660 661 660 660 660 661 663 665 667 668 668 669 670 671 672 673 675 676 678 681 684 686 689 691 693 695 697 699 702 704 704
786 785 785 781 775 767 761 759 758 754 746 737 734 731 727 724 722 717 713 711 709 705 702 699 695 692 691 691 688 687 685 683 681 678 674 669 668 667 665 663 663 662 659 657 656 655 654 654 654 654 655 656 657 658 659 660 660 660 660 661 662 664 665 666 667 667 668 669 669 670 672 673 675 676 677 680 683 686 689 692 695 696 698 700 702 704
793 794 791 788 785 778 771 767 766 765 757 745 738 735 731 726 724 721 716 714 713 710 706 704 702 698 695 692 689 687 686 684 682 681 677 673 671 670 669 667 667 665 663 661 659 658 657 656 656 656 657 658 658 658 659 660 660 661 661 662 664 665 665 666 666 667 667 668 669 669 670 672 673 674 675 678 680 684 688 691 694 697 699 699 701 704
Wind_Speed
1 3 4 3 1 3 4 6 5 2 1 3 3 3 4 4 5 5 8 7 5 7 8 10 13 10 6 7 9 9 6 7 11 11 10 10 11 11 12 13 13 14 14 15 18 19 19 18 22 26 27 28 27 28 30 34 35 34 34 32 25 22 20 20 19 18 19 19 17 16 15 15 14 16 21 25 28 27 24 22 20 19 18 17 15 14
1 4 2 3 4 5 5 5 4 4 4 5 5 6 6 6 6 6 9 11 6 5 8 10 12 9 6 8 8 9 10 9 10 11 11 12 12 10 13 15 14 13 11 9 9 12 17 18 20 24 24 26 27 29 33 36 37 35 34 34 32 27 22 21 21 18 18 19 17 16 16 15 13 17 23 26 28 28 25 23 21 20 19 17 17 15
3 5 2 5 6 4 2 3 4 5 5 5 4 5 5 4 5 6 7 9 6 4 7 10 11 9 6 9 10 10 11 9 8 9 10 11 12 12 13 14 14 14 11 8 8 11 17 19 21 22 22 27 29 30 33 34 34 35 34 34 35 30 23 23 24 21 19 18 17 16 18 19 18 20 25 26 26 26 25 23 21 20 19 18 18 16
4 2 2 3 3 2 1 2 4 4 4 5 4 5 6 2 3 5 3 4 7 6 8 10 11 9 8 9 11 12 12 10 7 8 9 8 10 13 14 14 14 15 14 12 11 12 15 18 20 20 22 28 28 27 30 31 33 35 34 36 37 31 26 27 28 23 19 18 19 22 24 25 23 23 25 25 25 25 25 24 22 21 20 19 18 17
6 3 3 2 3 4 4 3 5 5 4 6 6 7 7 4 5 7 2 4 8 10 10 9 10 9 8 10 11 11 11 10 9 9 9 8 9 10 12 14 15 16 15 14 13 13 13 16 19 23 28 32 29 28 33 37 39 39 37 37 38 34 30 30 28 24 21 19 20 23 23 22 22 21 21 22 21 21 23 23 23 23 21 20 19 18
8 5 5 4 6 7 6 6 6 6 5 5 7 9 10 7 7 8 5 3 5 8 7 6 8 7 4 9 12 10 11 12 10 10 11 10 10 9 9 11 13 14 14 13 14 14 14 16 19 23 29 29 27 32 40 43 44 43 39 37 38 36 34 29 25 24 23 21 20 21 21 20 20 19 19 19 18 18 17 18 21 22 22 21 20 20
5 3 4 6 7 7 8 6 4 5 5 4 3 6 9 8 7 8 7 4 4 5 2 2 8 6 1 6 9 8 11 14 13 12 13 11 10 10 10 11 11 12 12 11 13 14 14 16 17 20 25 28 31 38 44 44 43 43 40 39 39 38 37 29 23 24 25 23 22 24 27 25 21 18 18 16 17 19 17 15 19 22 22 22 21 20
3 3 2 4 5 6 6 4 3 6 6 3 2 3 5 6 7 8 7 6 6 5 4 4 7 6 5 8 8 6 8 12 13 14 14 12 11 12 11 11 12 13 12 11 11 14 14 15 17 20 26 35 42 41 40 40 42 43 42 41 40 39 38 32 26 25 26 25 23 26 32 29 24 22 20 16 16 20 18 14 18 21 22 22 21 21
4 5 5 5 5 5 4 4 6 9 7 2 3 1 1 4 6 6 6 6 6 5 6 7 7 6 7 8 8 8 10 12 13 15 15 14 12 13 12 12 12 12 12 11 11 13 14 16 19 23 30 40 44 38 36 40 41 40 40 40 40 39 39 37 34 30 28 26 24 28 34 30 25 25 24 21 19 20 18 14 17 20 22 22 21 21
2 4 4 5 6 4 5 6 8 10 7 1 2 2 2 3 5 5 5 5 5 6 8 8 9 7 8 6 7 10 12 13 13 13 13 11 12 11 10 10 11 10 11 11 9 10 13 17 21 26 32 33 33 33 35 37 36 34 35 37 40 40 39 38 40 36 29 27 25 31 37 32 27 25 23 23 19 17 17 16 17 20 22 23 22 21
4 4 2 4 6 4 6 8 8 10 8 2 1 4 3 3 4 4 4 4 5 6 10 11 10 8 8 6 7 9 11 11 10 10 9 8 11 12 9 9 10 10 9 9 9 8 11 15 17 21 23 19 20 25 28 29 30 31 32 37 39 39 40 39 41 39 31 28 27 30 36 36 32 29 25 22 18 16 17 18 18 19 21 23 23 22
5 7 5 4 6 5 5 8 7 7 6 3 3 4 3 4 3 3 4 4 5 7 10 11 10 10 9 5 5 9 13 12 10 9 10 9 9 8 6 7 9 9 9 9 10 9 8 11 12 14 15 13 15 20 22 25 29 30 32 36 35 35 40 40 41 40 32 29 28 29 35 37 34 33 29 23 20 19 19 18 17 17 18 20 20 21
5 8 8 5 6 8 9 8 7 6 5 6 6 4 4 4 3 4 5 6 6 9 8 4 5 9 10 8 9 13 14 14 13 12 11 10 9 7 4 5 6 7 8 8 9 9 8 9 10 12 14 15 18 21 23 25 28 29 32 36 34 36 42 42 42 41 32 29 30 30 34 36 34 35 32 28 26 22 19 19 18 17 18 18 19 20
5 4 5 5 4 9 12 8 7 6 6 8 7 6 6 5 3 4 5 5 6 9 9 6 5 6 8 9 13 18 19 17 16 16 13 11 11 10 7 5 5 6 7 7 8 9 9 9 10 12 14 17 20 22 24 25 28 29 31 35 36 36 39 40 42 41 33 31 33 34 35 35 34 35 34 33 32 28 24 23 24 24 23 22 20 21
5 3 4 6 2 6 12 11 9 5 5 8 8 7 7 5 4 4 5 6 6 7 8 7 6 5 5 3 10 17 18 16 17 18 15 13 11 11 10 8 8 8 8 7 9 10 10 10 12 13 15 18 20 22 24 25 27 28 30 34 36 34 35 38 42 40 34 32 35 36 35 34 35 36 34 34 35 33 30 28 29 29 29 27 25 25
5 5 4 5 1 4 9 10 9 8 6 6 7 8 8 8 7 4 3 4 4 5 4 4 4 5 5 5 5 11 12 11 14 16 17 17 15 13 11 9 8 8 9 8 9 11 11 11 12 14 16 18 21 23 26 26 26 28 30 34 38 37 36 39 42 39 33 33 36 37 36 35 36 36 35 35 36 36 34 32 31 31 31 31 29 27
5 4 2 3 5 7 10 8 8 9 5 3 7 9 5 4 7 5 4 3 2 5 4 4 6 7 7 9 11 14 14 12 12 13 15 16 15 12 10 8 8 8 8 8 9 11 12 12 13 15 17 18 20 22 25 27 29 33 34 36 37 35 32 36 40 37 31 34 39 40 38 37 37 38 37 36 37 36 35 33 32 32 32 31 30 28
4 5 2 4 8 5 5 6 8 10 7 3 5 6 2 1 3 5 5 4 4 6 5 5 9 9 7 6 5 11 15 15 14 13 13 14 13 11 9 8 8 9 9 9 10 11 13 13 13 15 18 20 22 24 27 30 34 37 36 36 35 32 33 36 38 36 31 33 40 42 40 39 38 39 37 36 37 37 35 34 33 32 32 31 30 28
2 6 3 2 6 3 1 4 6 8 11 8 3 1 2 3 5 6 5 4 5 6 5 7 11 10 8 6 5 8 12 14 15 13 11 12 12 10 9 8 9 9 8 9 10 10 12 13 14 16 18 21 24 25 27 31 33 33 33 33 32 31 33 33 33 33 31 34 41 43 42 40 37 34 30 29 34 37 36 34 33 33 32 31 31 29
2 4 3 2 2 3 1 4 4 4 9 9 6 4 3 3 4 5 5 4 5 6 5 8 10 8 7 8 10 12 12 13 15 12 11 12 11 9 8 8 8 8 8 9 10 10 12 14 16 19 20 23 25 26 27 29 29 30 30 30 30 29 29 30 32 35 34 34 38 41 43 40 33 29 26 25 28 32 35 35 34 33 33 32 31 29
1 3 5 2 2 4 3 3 4 4 5 6 7 6 5 2 2 3 3 3 5 5 5 6 7 7 5 5 9 13 12 11 10 8 8 10 9 9 9 8 8 6 7 9 9 10 12 13 16 21 23 23 25 26 26 25 26 28 29 29 29 29 30 32 34 36 34 32 33 39 43 37 29 28 27 27 25 27 31 34 35 34 33 33 32 30
2 3 6 6 4 5 6 4 3 3 2 4 6 6 6 5 4 4 6 6 6 6 5 6 6 6 4 2 5 7 5 4 4 4 5 7 8 9 7 7 7 6 6 8 9 11 11 12 14 19 22 23 23 23 23 23 24 26 27 27 28 29 31 33 36 36 35 32 31 35 37 31 28 28 28 27 26 25 26 29 34 36 33 33 33 31
2 1 6 8 7 8 10 8 6 6 4 4 5 6 6 6 6 7 7 5 5 6 6 6 6 8 5 1 2 3 3 4 4 4 5 6 7 8 8 8 7 7 8 8 9 10 11 11 13 17 21 23 23 22 23 23 24 25 27 27 28 30 32 35 38 37 35 33 31 31 31 29 28 27 28 29 26 26 25 26 31 34 32 33 33 31
3 1 4 7 7 8 10 8 5 7 7 5 6 6 6 7 9 8 4 1 3 6 5 5 8 8 4 1 2 5 6 6 5 4 5 6 7 8 9 10 9 9 9 10 9 10 10 11 12 14 17 19 20 21 22 23 24 25 26 27 30 32 33 35 36 35 35 34 31 31 31 30 28 27 29 30 27 27 26 24 24 26 28 33 33 31
3 3 3 4 5 3 3 2 2 4 6 5 5 6 8 9 9 5 2 1 4 7 7 6 8 8 2 2 4 6 7 8 6 4 5 6 7 8 9 9 10 9 8 9 10 10 11 12 13 13 13 15 18 20 22 23 25 26 27 29 32 33 33 35 34 36 37 34 32 33 32 30 30 29 30 29 26 27 27 24 22 22 23 29 33 32
3 3 3 2 3 2 2 1 0 2 4 5 5 7 9 10 10 6 4 5 6 7 8 8 9 8 7 11 11 9 8 9 9 9 7 5 7 9 9 10 9 8 8 10 10 10 11 12 13 14 13 14 18 20 22 24 25 25 27 29 32 32 33 35 35 36 37 34 35 36 31 29 31 31 30 29 27 27 27 24 23 21 20 26 33 33
2 3 5 5 5 5 6 4 1 2 2 4 5 9 11 11 13 10 6 7 7 5 7 9 11 13 15 15 15 12 9 9 10 11 10 8 8 9 9 10 10 10 10 10 10 10 11 12 14 15 14 15 18 21 22 24 25 25 25 29 32 33 34 35 37 36 35 36 38 34 29 29 32 32 32 31 28 27 27 27 26 23 20 24 32 33
2 4 6 8 9 10 11 11 8 6 7 8 7 9 11 12 13 11 8 8 5 4 8 11 13 17 16 13 15 14 10 8 10 10 10 10 10 11 10 12 13 12 11 10 10 11 12 13 14 14 13 15 19 21 22 23 25 25 25 28 31 33 34 36 36 34 34 39 40 32 28 30 31 32 37 37 33 32 32 33 33 26 20 26 33 33
3 5 4 6 9 12 13 14 13 10 9 10 10 10 10 11 13 13 12 9 6 6 11 14 17 19 15 13 16 12 6 7 11 11 11 11 11 11 11 13 13 12 12 12 11 11 13 13 13 13 15 16 17 20 22 23 24 24 24 28 31 33 34 35 35 33 35 40 38 30 28 30 28 30 36 38 35 34 35 35 35 28 23 30 35 33
2 4 3 5 8 10 12 13 13 11 10 9 11 11 10 11 13 13 12 10 10 13 16 17 19 18 14 14 15 8 3 7 10 10 10 10 10 11 12 13 13 12 12 12 11 10 11 12 13 14 15 16 17 20 22 23 24 25 28 31 33 34 34 34 35 35 37 37 33 27 27 29 28 30 33 33 32 35 36 36 36 34 32 34 35 33
2 3 2 2 5 7 8 10 10 10 11 10 10 10 9 9 10 11 11 10 11 14 18 20 19 18 14 11 10 7 4 6 9 10 11 10 9 11 13 14 13 13 12 11 11 10 9 10 12 14 15 17 18 20 22 23 25 26 29 31 33 34 34 35 35 36 37 34 29 25 26 28 30 30 29 29 33 37 38 36 37 36 33 34 34 33
4 4 3 1 4 5 3 6 7 7 8 10 10 9 8 8 7 7 9 10 12 14 17 17 16 15 11 7 8 9 6 6 8 9 10 10 10 12 14 15 15 13 12 13 13 11 10 10 11 14 15 15 17 20 22 23 25 26 29 32 34 34 34 34 35 35 35 32 27 25 28 30 30 29 28 30 36 40 38 37 37 34 32 35 35 34
4 4 3 2 5 5 1 3 4 3 5 6 6 5 4 5 4 5 6 9 12 14 13 11 10 8 8 9 11 12 11 10 8 7 7 10 12 14 15 15 15 13 13 14 14 13 11 10 10 12 13 13 16 21 22 22 23 26 30 33 32 31 32 33 33 33 33 31 27 27 29 29 28 28 28 32 37 39 38 37 35 34 36 38 36 34
5 5 2 1 4 5 2 2 2 3 3 2 1 1 2 3 5 6 7 8 10 10 8 9 8 8 9 10 11 13 14 14 12 10 10 8 9 14 15 15 14 14 14 15 14 13 11 10 10 11 13 15 17 19 18 19 20 22 23 25 25 27 29 29 30 30 31 29 25 26 30 30 29 29 28 32 37 38 39 37 32 34 39 39 36 35
5 5 3 1 3 5 4 2 2 2 3 2 1 1 2 5 8 9 11 12 10 9 9 10 9 9 9 10 9 11 14 15 15 14 13 9 8 11 14 14 14 14 15 15 14 13 11 10 10 10 13 16 18 18 18 19 21 21 21 22 23 25 26 27 28 29 30 29 24 27 31 32 32 30 28 33 38 39 39 35 29 33 38 36 35 37
6 4 2 2 3 4 4 3 4 3 3 4 1 1 2 5 7 7 9 8 6 4 5 7 8 8 9 9 8 9 12 15 13 9 7 7 7 7 10 12 13 15 16 15 13 13 11 10 10 11 12 15 18 19 20 21 23 23 23 23 24 25 26 27 27 26 28 28 27 30 34 33 33 33 32 36 39 39 39 35 28 30 33 31 33 37
7 4 2 2 3 3 5 5 4 4 1 4 2 2 3 4 4 4 5 4 4 2 3 5 7 9 10 9 8 8 9 10 10 4 1 3 7 8 10 12 12 15 17 14 13 13 12 10 10 11 12 15 18 19 21 23 25 25 24 24 24 24 25 25 24 24 26 27 27 30 32 31 32 33 34 37 39 36 36 33 29 31 35 33 34 36
5 5 2 3 2 2 5 5 4 4 2 2 1 2 2 4 6 6 5 3 3 1 4 6 7 9 11 10 10 9 6 6 8 3 3 6 15 14 13 13 13 14 14 14 13 11 10 8 8 11 14 17 18 20 22 25 26 24 22 22 22 22 21 21 22 22 24 25 26 28 29 29 30 32 34 37 37 34 32 28 26 30 34 34 34 35
2 4 3 4 3 2 4 4 3 2 1 2 4 5 9 10 5 7 4 2 3 2 8 8 8 9 10 11 11 9 4 4 8 5 4 12 19 17 15 15 14 13 14 16 14 10 7 8 10 13 16 18 19 21 24 26 26 24 22 22 22 20 19 20 21 22 23 23 23 24 25 27 30 31 32 34 35 34 30 25 23 29 33 33 35 36
1 1 1 3 4 4 4 3 2 2 1 3 7 9 13 12 2 5 2 1 1 6 9 8 9 9 9 10 9 6 3 3 7 10 13 17 17 16 16 14 12 14 15 17 16 9 8 10 12 14 15 17 19 22 24 26 25 23 22 23 23 22 22 23 25 26 26 26 27 28 29 30 30 30 30 31 33 33 30 26 25 30 34 33 32 34
3 3 2 2 5 6 5 4 3 2 1 3 6 11 15 11 2 2 1 2 4 10 9 8 10 9 9 10 8 5 5 6 8 12 16 17 16 16 16 13 12 13 14 14 12 6 6 9 12 13 14 16 19 22 24 25 24 23 23 24 24 25 25 25 28 30 30 30 32 32 32 33 32 31 30 30 30 30 29 30 32 35 35 33 31 32
5 5 3 4 5 5 5 4 4 2 1 2 8 11 10 6 0 1 4 5 8 11 11 9 10 8 9 11 9 8 9 10 10 12 15 15 13 13 15 13 12 12 12 10 7 4 1 6 9 12 13 15 17 20 22 23 22 22 22 23 24 25 26 26 28 31 30 29 30 29 30 33 35 35 33 31 33 34 34 36 38 38 36 35 34 32
5 6 6 5 5 5 5 5 4 2 3 9 14 9 2 1 2 4 7 9 9 9 9 8 8 8 9 10 11 11 11 12 12 12 13 14 12 11 11 11 9 8 9 8 8 7 2 3 7 9 12 15 17 18 20 21 21 20 20 21 22 24 26 27 28 29 28 29 29 29 32 36 37 38 39 40 41 42 39 37 37 36 36 36 34 32
3 4 5 4 4 4 5 5 4 5 8 13 13 6 2 4 6 6 6 7 7 6 6 6 7 8 9 9 10 11 11 12 12 11 10 13 13 10 10 10 7 6 7 8 10 10 5 3 4 6 8 11 14 15 16 19 20 19 19 21 23 23 25 27 27 26 26 27 27 30 33 34 35 38 42 43 42 40 37 35 35 34 32 30 28 28
5 7 6 4 4 4 4 5 7 9 11 11 9 7 8 10 10 10 8 6 6 6 5 6 7 8 9 9 9 9 10 11 11 9 11 13 12 9 8 9 8 9 8 9 11 12 9 5 4 5 6 7 9 10 11 14 16 17 18 19 20 22 25 26 24 22 22 22 24 29 31 30 30 33 36 37 38 38 37 37 35 33 30 27 25 25
8 10 7 5 7 7 6 7 8 12 15 13 11 10 11 11 11 12 11 9 8 7 6 7 8 8 9 9 8 9 10 10 10 9 10 11 12 10 10 9 10 11 11 11 12 13 12 10 7 6 5 3 3 5 7 10 11 13 15 15 16 20 22 22 19 19 20 19 21 25 28 26 25 27 29 31 33 33 34 36 35 34 32 30 29 28
7 9 7 7 10 9 5 5 12 17 18 15 12 12 13 13 11 10 10 9 9 9 8 8 9 10 9 8 8 9 10 10 9 7 6 7 9 10 11 10 10 11 12 13 15 15 13 13 10 8 8 7 4 1 3 6 6 8 10 11 14 17 19 19 18 17 18 20 20 22 25 26 26 25 26 28 30 29 30 33 33 32 31 30 29 29
7 8 8 8 9 8 7 10 15 17 15 12 12 12 12 13 13 12 10 9 9 9 8 8 8 9 9 8 8 9 10 10 9 7 5 6 7 8 9 9 10 12 13 15 18 16 14 13 11 9 9 9 6 3 1 3 4 5 8 11 14 17 18 21 22 21 20 21 22 22 24 27 28 28 26 27 29 29 29 29 27 27 29 31 33 33
7 7 8 9 9 7 7 10 15 14 11 11 15 16 14 14 14 13 12 11 12 12 12 12 11 10 9 10 11 10 8 8 8 8 6 5 7 9 10 10 10 12 14 16 18 17 15 14 12 10 10 9 7 5 3 1 2 3 6 10 14 17 19 20 22 22 22 22 23 24 26 27 29 30 27 27 29 30 29 30 31 30 31 35 38 38
6 6 8 8 6 5 7 12 15 12 8 10 16 18 17 15 14 14 13 13 13 14 14 14 14 13 11 11 11 11 8 6 7 8 5 5 6 6 8 8 8 10 13 15 15 16 18 17 15 15 14 12 11 10 8 6 5 2 3 6 11 16 18 19 20 20 21 21 21 22 24 26 28 29 27 28 30 29 26 27 30 29 29 33 37 37
5 6 8 7 5 7 11 14 14 10 8 11 15 17 16 14 13 13 13 11 10 12 12 12 12 13 13 10 9 10 10 8 7 7 4 5 5 5 6 7 6 8 12 14 13 15 17 18 18 18 17 15 13 12 10 10 9 6 3 2 6 11 13 15 16 15 15 16 17 20 23 24 24 25 25 26 28 27 23 22 22 22 22 27 32 34
Wind_Direction
327 237 233 229 165 157 197 217 223 203 218 288 283 269 277 275 264 278 283 289 346 327 275 256 265 272 276 258 253 266 258 232 228 211 198 201 202 198 199 208 209 209 218 217 212 204 192 188 191 193 192 191 192 196 200 203 205 202 200 197 196 199 196 195 198 200 206 209 209 208 207 206 204 201 198 194 194 196 197 196 195 195 199 204 206 208
269 261 234 168 185 201 207 192 187 221 252 267 269 270 267 261 265 275 279 285 313 307 275 279 286 286 287 277 270 268 260 248 233 219 206 195 199 202 199 206 208 211 222 211 199 194 187 184 186 188 186 185 189 195 199 203 203 203 202 200 200 201 197 198 200 200 205 208 208 205 205 203 200 202 200 195 194 197 199 199 199 201 204 209 211 211
267 274 218 192 209 210 190 160 188 226 241 247 248 261 258 248 265 264 260 278 296 280 273 289 293 289 286 278 272 266 260 258 244 231 225 201 195 200 201 205 207 210 216 200 185 187 185 183 182 182 182 186 191 195 198 200 201 202 202 202 202 200 198 201 203 202 205 209 209 207 207 206 205 205 201 197 196 198 200 201 203 206 210 213 214 213
285 307 177 193 188 168 196 168 186 217 227 234 233 246 251 226 252 251 230 295 303 284 279 296 297 286 282 275 265 260 259 267 268 244 238 225 208 203 200 202 203 206 209 200 192 188 183 180 181 181 183 189 192 192 195 197 199 202 203 203 202 198 199 204 205 205 205 208 211 214 215 214 213 211 206 204 204 204 206 207 209 211 213 215 215 213
263 245 160 147 175 210 247 201 193 224 228 224 226 239 249 228 233 250 269 320 302 282 271 280 289 279 260 255 255 254 252 256 264 252 237 230 226 222 213 206 204 204 204 198 192 185 179 180 182 186 190 192 191 192 196 199 201 202 203 204 203 200 202 206 205 204 203 206 210 212 214 214 214 212 207 205 206 206 208 209 210 211 212 213 214 214
262 243 187 212 227 222 233 222 212 228 244 236 223 231 242 237 233 242 249 268 278 268 251 236 257 265 235 241 247 244 246 245 246 250 243 228 219 223 226 220 213 210 207 198 191 185 180 182 183 188 191 190 190 196 201 202 203 203 202 204 204 201 203 205 204 203 203 205 206 204 202 202 204 204 202 201 200 200 202 204 206 208 210 211 212 214
261 242 192 226 232 213 221 238 225 216 248 260 219 220 231 231 233 235 232 222 236 256 256 206 244 258 237 245 244 233 243 245 238 241 244 234 217 210 215 220 219 217 213 204 195 189 186 184 184 187 188 188 195 201 203 202 202 202 202 204 204 203 203 204 201 201 203 204 205 205 204 203 202 202 203 203 202 202 200 200 204 206 209 210 211 213
191 209 207 219 224 216 224 242 200 194 233 258 128 168 209 217 231 235 230 225 240 268 289 261 249 264 265 253 250 243 253 253 243 240 240 235 223 214 212 213 215 217 214 206 194 190 192 190 189 189 188 194 202 202 200 199 200 201 202 203 203 203 203 203 201 201 202 204 205 208 209 208 207 207 207 204 205 208 205 200 203 206 208 209 211 212
157 210 218 206 223 230 217 210 191 197 224 227 101 98 226 234 244 244 239 238 246 266 263 235 225 251 258 242 246 256 258 256 247 242 241 237 230 221 217 215 217 219 219 216 199 188 192 194 195 195 192 198 202 199 195 198 199 199 199 200 202 203 203 204 206 205 203 204 205 209 210 209 210 211 211 211 210 209 207 203 202 205 207 207 208 211
211 234 214 197 229 234 200 196 187 197 216 150 118 276 265 231 246 240 235 243 244 249 251 226 200 231 258 236 230 244 247 248 244 242 243 241 241 235 223 220 223 223 225 226 213 191 192 197 200 201 199 199 198 195 195 196 196 195 194 197 200 202 202 203 208 207 204 204 206 209 210 209 209 209 209 210 207 204 206 206 203 203 204 205 206 209
258 260 219 200 231 223 199 206 198 201 205 154 229 273 268 236 246 238 227 236 237 238 249 238 204 216 256 237 213 230 242 248 248 251 257 253 250 248 233 222 227 227 224 225 223 209 197 199 202 204 206 203 193 191 191 192 193 191 192 196 199 200 200 201 206 207 204 203 205 208 210 209 209 208 204 202 200 200 204 205 203 202 202 204 206 209
257 246 236 216 217 202 206 224 223 211 197 189 241 262 266 248 228 224 218 213 230 240 246 242 212 216 243 233 220 241 246 253 259 256 261 260 254 255 242 228 230 231 226 221 222 218 201 196 196 199 204 199 185 185 187 189 191 190 191 195 196 198 201 200 204 206 202 202 204 205 209 209 208 207 203 197 196 199 202 203 201 200 200 201 203 206
258 238 232 227 210 201 213 228 228 221 208 218 232 227 238 236 197 210 216 205 225 242 248 240 195 220 245 247 251 262 259 256 259 256 256 260 263 269 265 240 238 239 235 228 223 217 205 197 194 194 193 188 183 186 189 190 190 190 192 194 195 199 201 200 201 203 200 199 201 202 206 207 207 207 205 200 200 200 201 201 199 199 200 199 201 204
275 239 210 218 222 204 211 225 229 217 207 218 218 203 214 216 195 212 219 216 227 240 249 242 222 243 260 241 229 244 253 251 253 257 255 256 259 262 263 254 252 252 244 238 231 224 212 201 197 195 190 187 189 191 192 190 190 191 191 194 197 199 200 199 200 201 199 199 202 202 204 206 207 207 206 205 205 204 203 203 204 206 206 204 204 206
272 281 188 192 180 187 207 225 234 221 201 214 212 206 218 217 213 219 215 219 229 247 248 221 216 242 259 215 194 221 241 241 242 250 250 250 252 255 260 254 250 252 244 236 232 229 222 208 201 196 191 190 193 193 192 192 192 191 193 196 198 198 198 198 200 201 198 199 202 202 203 206 207 207 206 206 208 210 209 207 209 212 213 213 213 214
254 273 206 202 198 175 211 228 225 220 216 210 199 203 220 219 216 229 243 236 240 273 263 198 218 250 264 296 251 241 255 249 242 244 244 246 246 246 254 248 238 241 239 229 224 227 226 219 210 202 196 194 193 194 195 195 192 193 196 198 200 200 198 199 200 200 197 197 200 200 202 206 207 207 207 207 209 212 213 213 215 217 219 219 219 220
252 263 172 234 257 213 226 233 207 211 217 175 191 209 217 217 222 237 264 265 267 281 266 225 250 261 265 276 263 254 260 260 255 250 245 248 244 238 242 239 229 228 231 225 218 221 222 221 216 209 204 198 194 194 195 196 197 198 199 200 200 199 196 198 200 198 195 196 199 200 202 205 207 208 208 208 210 212 214 218 219 219 220 221 222 223
260 277 257 265 270 240 228 228 206 213 216 168 191 210 172 65 243 242 257 257 247 259 253 232 251 256 251 258 251 243 246 250 254 252 249 251 247 237 232 231 225 217 222 225 221 220 220 221 218 210 206 204 200 197 196 199 202 203 202 201 199 196 196 198 198 197 195 194 198 201 202 204 207 208 208 208 210 212 214 216 217 217 219 221 222 223
238 281 293 248 277 315 98 201 211 217 221 227 259 246 189 211 206 197 222 242 235 245 245 238 248 250 243 252 273 256 243 246 252 248 246 250 249 245 236 232 226 214 216 223 222 220 217 220 221 213 208 206 205 203 201 202 203 202 202 201 200 199 199 198 196 197 197 195 199 201 202 204 206 204 203 204 208 211 212 214 215 217 218 220 222 221
158 276 295 140 250 324 114 194 217 207 211 231 263 270 246 243 216 192 200 219 225 234 241 244 247 246 242 244 254 255 245 244 250 246 239 240 241 242 239 236 229 210 205 213 219 221 216 216 218 216 211 208 206 206 205 204 201 199 199 199 200 198 196 196 196 198 198 196 199 201 202 204 202 198 199 200 202 206 210 212 215 216 217 219 221 220
156 246 264 242 240 273 245 200 230 228 198 208 229 234 229 232 254 223 199 214 236 237 237 246 247 244 240 229 240 250 244 238 252 258 249 245 241 237 235 239 242 228 212 211 215 219 218 215 216 215 213 211 208 206 204 202 199 198 197 196 197 194 192 194 196 198 198 196 198 201 202 201 197 194 198 199 199 202 206 210 214 215 216 218 219 218
187 219 254 270 271 258 245 197 200 249 232 212 214 219 220 212 220 226 211 214 230 241 246 252 260 261 254 217 234 250 248 243 277 288 271 268 266 259 249 242 248 250 237 226 221 221 220 215 215 215 214 212 210 206 203 200 198 198 197 195 195 194 194 197 197 199 197 194 197 201 200 196 193 193 196 198 198 198 200 206 211 214 215 216 217 217
163 201 255 265 265 264 265 253 235 242 251 246 234 230 223 209 212 224 220 209 211 233 254 258 264 268 262 229 234 258 284 283 275 265 267 277 277 277 279 270 263 265 261 251 237 227 223 218 215 214 213 212 210 203 199 198 197 198 197 195 194 194 196 199 199 198 195 194 196 197 196 194 192 192 196 197 197 198 198 203 208 211 213 214 215 216
161 206 248 267 273 266 264 258 237 226 224 234 236 224 218 220 224 231 236 232 229 237 249 255 253 254 253 205 247 270 284 281 269 256 268 285 286 277 274 269 262 260 261 262 255 238 228 222 217 215 214 213 208 200 196 195 195 196 196 196 197 197 197 199 198 196 195 195 194 194 195 194 191 190 194 196 197 198 199 199 201 205 209 212 214 214
185 218 218 268 296 285 244 201 155 190 197 213 227 212 217 226 221 217 207 215 247 241 237 248 249 242 254 328 287 289 301 301 300 289 264 270 287 288 280 271 262 258 258 262 265 253 236 226 218 216 216 209 202 197 195 196 196 195 194 196 199 199 198 197 196 195 196 194 192 194 195 193 191 192 193 195 197 198 198 195 195 199 202 209 213 213
209 222 181 237 284 289 291 289 171 213 190 189 207 211 218 218 206 203 205 213 236 239 232 245 253 256 292 314 308 305 313 314 314 314 301 281 287 293 289 283 277 271 267 265 265 257 242 231 222 215 210 203 197 194 194 195 196 195 194 195 198 199 197 196 195 195 194 192 192 195 193 191 193 194 192 193 194 195 195 193 194 197 199 207 212 212
215 233 214 230 247 260 279 284 286 310 258 217 217 215 215 211 206 210 220 225 235 245 248 255 263 272 283 292 292 293 306 316 312 311 312 309 303 296 287 282 280 274 269 266 262 256 246 236 228 218 208 200 196 194 193 193 194 195 194 195 198 197 195 195 194 192 191 194 195 194 191 192 194 194 192 192 192 194 195 196 199 200 201 207 212 212
230 251 224 220 237 253 266 272 269 275 270 260 256 236 223 212 200 200 216 225 221 243 259 253 249 257 265 267 273 283 298 310 305 303 307 306 301 299 293 285 281 276 274 268 256 250 244 236 228 217 208 202 197 195 192 192 194 194 194 197 198 196 194 192 189 186 189 194 196 192 191 193 193 193 194 195 196 197 198 201 204 203 203 209 212 213
250 265 223 204 236 251 257 265 265 261 260 256 251 246 237 220 202 203 218 215 187 212 244 245 241 247 255 262 269 278 288 293 294 296 295 292 291 296 298 291 283 278 277 274 263 246 237 234 226 213 206 203 199 195 192 191 192 191 193 198 198 197 194 187 184 186 190 194 194 192 191 191 190 190 192 194 195 196 198 202 204 204 206 211 212 213
277 269 236 210 244 256 252 257 259 254 251 245 238 237 237 231 221 221 229 220 205 224 242 251 258 262 264 264 269 278 287 280 284 287 286 290 302 308 303 294 283 276 275 278 275 259 238 229 224 214 206 202 199 196 193 190 189 188 192 196 197 197 192 184 184 189 192 192 192 190 189 190 188 188 189 189 190 192 197 202 204 207 210 211 210 211
244 269 301 223 251 262 249 248 254 249 244 243 241 235 228 231 233 233 239 233 222 233 244 252 264 270 265 266 281 287 270 268 280 293 298 304 315 311 300 292 283 279 286 293 289 276 254 234 224 215 208 206 202 196 191 189 188 188 191 194 196 195 190 185 186 190 192 192 189 186 188 188 185 186 186 186 188 192 197 202 204 206 208 207 207 210
220 263 319 311 289 294 258 257 260 236 232 245 251 244 222 217 225 223 224 224 221 231 242 246 252 260 266 296 312 295 282 278 281 291 300 306 309 302 294 290 284 282 293 303 301 288 267 244 228 218 212 208 202 198 194 188 186 186 190 194 196 192 187 186 188 191 191 189 184 184 187 185 183 185 184 184 187 191 196 200 201 201 202 204 205 207
220 259 306 328 308 311 327 316 296 199 200 236 249 257 232 221 244 245 229 224 221 224 236 243 245 263 297 322 316 308 311 306 294 285 284 292 299 295 286 280 280 285 298 306 303 292 272 248 232 221 213 207 203 201 199 192 187 187 189 193 192 185 181 183 187 190 189 186 184 187 186 182 182 184 183 183 186 189 194 197 197 198 202 204 204 204
236 249 277 324 301 297 297 309 269 195 192 214 217 310 309 296 281 260 254 255 240 231 247 265 273 292 307 308 306 307 306 302 299 289 276 268 276 282 280 276 279 292 303 305 301 293 276 251 231 216 205 203 201 197 192 190 193 191 187 185 180 174 175 181 186 189 187 185 185 186 183 181 182 182 182 183 185 188 192 195 195 198 202 203 202 202
258 253 262 243 263 287 296 291 280 241 187 180 314 317 301 301 284 267 272 277 265 248 252 264 274 285 293 299 303 300 297 297 294 288 285 283 274 277 282 283 289 301 306 306 304 299 282 252 229 212 200 193 187 181 178 181 186 183 176 174 172 171 175 182 186 186 185 184 184 183 182 183 183 182 181 182 184 186 191 193 194 198 201 201 199 200
258 267 271 250 252 283 307 323 326 312 166 149 24 336 249 270 277 275 274 263 239 230 245 263 281 289 293 298 301 298 299 300 298 296 307 313 310 303 291 287 296 302 301 304 304 297 282 252 224 207 193 180 173 173 175 177 180 179 175 174 175 176 178 183 185 184 184 186 186 184 184 185 184 182 181 182 184 186 190 193 194 195 197 197 198 199
243 251 279 278 257 285 306 300 292 287 176 130 134 224 221 233 240 261 275 244 191 203 276 283 293 301 303 303 307 311 307 300 299 304 101 324 328 324 299 293 297 293 293 303 306 293 278 254 220 193 178 168 167 170 170 171 175 176 173 171 172 174 178 181 183 182 184 187 187 186 186 185 183 183 182 182 183 186 191 193 194 196 197 196 197 199
225 231 274 298 273 296 302 296 296 309 0 88 179 231 268 275 235 222 263 261 184 218 312 295 289 306 313 315 318 319 316 296 284 238 130 334 328 329 319 306 295 288 300 319 315 292 268 238 195 174 169 165 166 168 168 169 169 165 162 164 167 170 174 177 181 183 185 187 188 188 187 185 184 184 183 183 184 187 190 191 192 196 197 196 196 198
203 224 266 289 284 292 293 293 302 300 41 27 327 316 330 324 262 199 228 229 169 328 325 305 294 305 313 318 319 319 340 325 292 287 351 330 323 324 318 304 296 306 325 328 311 281 238 192 165 162 165 166 167 169 168 167 163 156 157 162 163 165 169 173 177 180 182 184 185 186 186 187 188 187 185 185 185 187 190 191 192 197 198 199 199 199
10 240 300 300 294 294 287 283 277 243 218 322 315 317 327 328 273 180 218 187 112 328 316 301 302 307 307 314 313 308 332 321 289 298 314 314 314 312 301 296 315 331 327 316 304 274 203 168 154 157 163 166 168 168 166 164 161 158 159 161 161 167 173 174 175 177 179 181 183 185 187 189 190 189 188 188 188 190 193 193 194 198 200 201 201 200
334 330 313 309 314 311 306 296 287 281 228 262 299 319 323 319 258 180 313 353 326 315 308 305 312 312 308 309 302 290 299 293 284 298 307 310 315 313 306 315 336 324 299 296 303 282 190 162 152 156 161 163 165 166 166 167 166 164 163 165 170 176 177 175 176 177 180 182 185 187 188 188 189 189 189 188 189 193 197 198 199 201 200 198 198 199
340 335 324 328 326 317 308 296 295 308 158 266 309 318 315 310 330 342 321 316 311 311 311 312 310 308 307 305 298 292 296 300 307 312 310 313 321 320 317 322 323 305 293 302 327 336 187 159 152 154 155 156 162 167 170 170 169 168 168 173 180 182 179 177 178 179 180 182 183 185 185 186 189 189 187 188 192 197 201 203 203 203 200 197 196 196
334 329 330 337 329 312 313 324 332 339 317 318 321 317 282 288 318 295 294 300 302 305 308 305 304 308 310 309 309 310 312 319 324 317 309 315 327 329 316 304 298 303 316 337 4 14 31 147 156 160 158 158 163 170 174 176 174 171 173 180 185 184 182 183 184 185 185 184 185 187 187 189 190 189 189 193 197 198 200 201 202 201 198 196 195 192
343 343 333 334 346 341 337 343 337 309 307 318 322 318 316 327 315 294 289 297 304 313 316 310 310 315 312 308 310 313 311 310 309 308 320 330 333 330 317 307 316 341 344 353 9 17 29 110 155 166 162 161 166 172 181 185 180 173 177 185 187 185 187 191 191 190 190 189 189 191 192 192 192 191 193 196 195 195 195 197 198 198 196 194 192 188
349 344 327 310 325 330 301 278 281 297 314 322 323 331 347 348 341 339 339 336 331 333 331 323 319 316 312 308 307 306 306 304 303 323 346 337 322 322 329 328 346 11 12 10 17 23 32 56 113 146 156 164 167 173 191 199 189 177 176 183 186 187 190 193 191 189 190 192 194 195 195 195 193 192 195 196 194 193 193 193 193 193 191 191 190 187
331 336 334 311 314 312 275 258 292 320 328 328 327 337 349 353 349 344 343 344 338 332 332 330 321 314 312 313 311 313 319 319 317 333 347 326 313 334 357 350 354 12 17 18 22 28 39 55 75 97 107 120 146 175 205 215 203 183 176 176 180 186 191 193 190 187 189 193 197 198 198 196 193 193 197 198 197 196 194 191 190 189 188 189 189 188
332 345 350 329 327 330 312 318 340 337 327 325 333 340 344 349 348 343 338 336 331 331 334 330 322 322 324 320 319 325 328 321 314 324 340 323 319 347 2 354 352 4 14 24 28 30 43 58 62 67 70 60 46 61 217 226 213 187 173 170 174 183 190 193 193 193 194 197 200 200 198 197 196 196 198 197 196 196 194 193 192 189 187 186 184 184
329 343 350 334 328 323 297 313 335 329 313 321 342 342 342 347 345 339 336 332 327 332 338 332 331 342 342 334 336 340 330 317 315 324 339 339 339 352 0 0 1 358 2 21 32 34 43 55 58 62 63 57 54 63 118 217 211 191 179 177 181 186 191 195 198 199 201 202 203 200 199 199 199 198 197 196 195 195 193 192 191 190 190 190 187 183
316 326 340 326 316 305 289 313 335 330 312 331 347 344 343 346 341 338 343 347 343 343 348 346 345 354 357 349 347 345 330 320 321 322 335 8 7 356 357 4 8 2 1 14 26 33 41 48 54 58 55 50 50 54 63 117 172 184 181 183 188 192 195 197 199 202 205 207 206 204 202 202 201 199 196 193 195 198 198 197 196 196 196 197 197 194
334 338 343 335 329 326 319 329 340 335 316 326 338 337 338 342 342 342 348 355 349 342 345 348 344 346 354 354 345 335 331 340 335 319 330 35 30 2 3 7 2 8 18 22 25 31 36 41 46 50 46 39 34 30 28 30 31 51 158 183 195 198 200 201 203 207 211 212 211 209 205 203 203 201 194 189 192 196 198 199 202 202 199 199 201 202
354 339 335 335 321 304 309 323 333 326 304 309 326 333 336 340 344 342 342 351 349 337 339 345 342 337 338 343 349 348 344 347 338 318 331 53 50 26 28 30 21 22 27 29 31 33 33 35 38 40 40 35 31 27 19 11 6 1 348 274 221 212 211 210 208 212 218 218 215 212 207 205 204 199 191 188 188 187 184 188 197 203 206 205 204 202